Weather History for Lakehurst NAS, NJ

Change the Weather History Date:

Sunday, December 9, 2012

  Actual Average Record
Temperature  
Mean Temperature 47 °F -  
Max Temperature 50 °F 46 °F 58 °F (1999)
Min Temperature 44 °F 35 °F 27 °F (1997)
Degree Days  
Heating Degree Days 18    
Moisture  
Dew Point 46 °F    
Average Humidity 95    
Maximum Humidity 100    
Minimum Humidity 81    
Precipitation  
Precipitation 0.00 in - - ()
Sea Level Pressure  
Sea Level Pressure 30.13 in    
Wind  
Wind Speed 4 mph (NE)    
Max Wind Speed 12 mph    
Max Gust Speed -    
Averages and records for this station are not official NWS values.
T = Trace of Precipitation, MM = Missing Value Source: NWS Daily Summary

Daily Weather History Graph

Daily Weather History Graph

Search for Another Location

Airport:

Trip Planner

Search our weather history database for the weather conditions in past years. The results will help you decide how hot, cold, wet, or windy it might be!

Date:

Astronomy

Dec. 09, 2012 Rise Set
Actual Time 7:07 AM EST 4:31 PM EST
Civil Twilight 6:37 AM EST 5:02 PM EST
Nautical Twilight 6:03 AM EST 5:36 PM EST
Astronomical Twilight 5:30 AM EST 6:09 PM EST
Moon 2:37 AM EST (12/9) 1:37 PM EST (12/9)
Length of Visible Light 10h 24m
Length of Day
9h 23m
Waning Crescent, 19% of the Moon is Illuminated
Dec 9
Waning Crescent
Dec 13
New
Dec 20
First Quarter
Dec 28
Full
Jan 4
Last Quarter

Hourly Weather History & Observations

Time (EST) Temp. Windchill Dew Point Humidity Pressure Visibility Wind Dir Wind Speed Gust Speed Precip Events Conditions
12:00 AM 50.0 °F - 50.0 °F 100% 30.01 in - Calm Calm - N/A   Overcast
1:00 AM 50.0 °F - 48.9 °F 96% 30.02 in - West 4.6 mph - N/A   Overcast
2:00 AM 48.9 °F - 48.9 °F 100% 30.04 in - Calm Calm - N/A   Overcast
2:47 AM 48.2 °F - 48.2 °F 100% 30.05 in - Calm Calm - N/A   Overcast
3:00 AM 48.9 °F - 48.9 °F 100% 30.06 in - Calm Calm - N/A   Overcast
3:21 AM 48.2 °F - 48.2 °F 100% 30.07 in - West 4.6 mph - N/A   Overcast
4:00 AM 48.9 °F - 48.9 °F 100% 30.08 in - Calm Calm - N/A   Overcast
5:00 AM 48.9 °F - 48.0 °F 97% 30.10 in - Calm Calm - N/A   Overcast
6:00 AM 48.2 °F - 48.2 °F 100% 30.12 in - Calm Calm - N/A   Overcast
6:08 AM 48.2 °F - 46.4 °F 93% 30.13 in - Calm Calm - N/A   Overcast
7:00 AM 48.9 °F - 46.9 °F 93% 30.15 in - Variable 3.5 mph - N/A   Overcast
8:00 AM 48.0 °F - 45.0 °F 89% 30.18 in - NE 4.6 mph - N/A Rain Rain
9:00 AM 48.0 °F - 46.0 °F 93% 30.20 in - NE 5.8 mph - N/A   Overcast
9:41 AM 48.2 °F - 46.4 °F 93% 30.23 in - Variable 3.5 mph - N/A Rain Light Rain
10:00 AM 48.0 °F - 46.0 °F 93% 30.22 in - ENE 5.8 mph - N/A Rain Light Rain
11:00 AM 48.0 °F - 46.0 °F 93% 30.21 in - ENE 10.4 mph - N/A Rain Rain
11:24 AM 48.2 °F - 46.4 °F 93% 30.21 in - NE 4.6 mph - N/A Rain Light Rain
12:00 PM 46.9 °F - 45.0 °F 93% 30.20 in - ENE 9.2 mph - N/A Rain Light Rain
12:32 PM 46.4 °F 41.5 °F 44.6 °F 93% 30.19 in - ENE 10.4 mph - N/A Rain Light Rain
12:34 PM 46.4 °F 42.4 °F 44.6 °F 93% 30.18 in - ENE 8.1 mph - N/A Rain Light Rain
12:43 PM 46.4 °F 41.9 °F 44.6 °F 93% 30.18 in - NE 9.2 mph - N/A   Overcast
1:00 PM 45.0 °F 40.6 °F 43.0 °F 93% 30.19 in - NE 8.1 mph - N/A   Overcast
1:19 PM 44.6 °F 39.2 °F 39.2 °F 81% 30.17 in - NE 10.4 mph - N/A Rain Light Rain
2:00 PM 44.1 °F 39.5 °F 39.9 °F 85% 30.17 in - ENE 8.1 mph - N/A   Overcast
3:00 PM 44.1 °F 39.0 °F 41.0 °F 89% 30.17 in - ENE 9.2 mph - N/A   Overcast
4:27 PM 44.6 °F 40.2 °F 42.8 °F 93% 30.17 in - ENE 8.1 mph - N/A   Overcast
4:38 PM 44.6 °F 40.2 °F 42.8 °F 93% 30.17 in - ENE 8.1 mph - N/A   Overcast
5:00 PM 44.1 °F 39.5 °F 42.1 °F 93% 30.16 in - ENE 8.1 mph - N/A   Overcast
6:00 PM 44.1 °F 40.1 °F 43.0 °F 96% 30.16 in - ENE 6.9 mph - N/A   Overcast
7:00 PM 45.0 °F 41.2 °F 44.1 °F 97% 30.14 in - NE 6.9 mph - N/A   Overcast
7:21 PM 44.6 °F 40.2 °F 44.6 °F 100% 30.13 in - NE 8.1 mph - N/A Rain Light Rain
9:00 PM 48.0 °F - 48.0 °F 100% 30.06 in - ENE 11.5 mph - N/A Rain Light Rain
10:00 PM 48.9 °F - 48.9 °F 100% 30.03 in - East 8.1 mph - N/A Rain Light Rain
11:00 PM 50.0 °F - 48.9 °F 96% 30.01 in - Calm Calm - N/A   Overcast